Weather History for Wheaton NDB, MN

Change the Weather History Date:

Wednesday, February 13, 2013

  Actual Average Record
Temperature  
Mean Temperature 27 °F -  
Max Temperature 33 °F 26 °F 55 °F (1983)
Min Temperature 21 °F 5 °F -20 °F (1970)
Degree Days  
Heating Degree Days 38    
Moisture  
Dew Point 25 °F    
Average Humidity 88    
Maximum Humidity 100    
Minimum Humidity 75    
Precipitation  
Precipitation 0.20 in - - ()
Sea Level Pressure  
Sea Level Pressure 29.69 in    
Wind  
Wind Speed 7 mph (WSW)    
Max Wind Speed 15 mph    
Max Gust Speed 21 mph    
Visibility 7 miles    
Events Rain , Snow    
Averages and records for this station are not official NWS values.
T = Trace of Precipitation, MM = Missing Value Source: NWS Daily Summary

Daily Weather History Graph

Daily Weather History Graph

Search for Another Location

Airport:

Trip Planner

Search our weather history database for the weather conditions in past years. The results will help you decide how hot, cold, wet, or windy it might be!

Date:

Astronomy

Feb. 13, 2013 Rise Set
Actual Time 7:31 AM CST 5:50 PM CST
Civil Twilight 7:00 AM CST 6:21 PM CST
Nautical Twilight 6:25 AM CST 6:56 PM CST
Astronomical Twilight 5:50 AM CST 7:30 PM CST
Moon 8:46 AM CST (2/13) 10:10 PM CST (2/13)
Length of Visible Light 11h 20m
Length of Day
10h 19m
Waxing Crescent, 14% of the Moon is Illuminated
Feb 13
Waxing Crescent
Feb 17
First Quarter
Feb 25
Full
Mar 4
Last Quarter
Mar 11
New

Hourly Weather History & Observations

Time (CST) Temp. Windchill Dew Point Humidity Pressure Visibility Wind Dir Wind Speed Gust Speed Precip Events Conditions
12:14 AM 23.0 °F 14.7 °F 19.4 °F 86% 29.81 in 10.0 mi WSW 6.9 mph - N/A   Overcast
12:34 AM 21.2 °F 14.9 °F 19.4 °F 93% 29.80 in 10.0 mi WSW 4.6 mph - N/A   Mostly Cloudy
12:55 AM 23.0 °F 15.8 °F 19.4 °F 86% 29.80 in 10.0 mi WSW 5.8 mph - N/A   Mostly Cloudy
1:16 AM 23.0 °F 14.7 °F 19.4 °F 86% 29.80 in 10.0 mi WSW 6.9 mph - N/A   Overcast
1:34 AM 26.6 °F 18.2 °F 21.2 °F 80% 29.79 in 10.0 mi WSW 8.1 mph - N/A   Overcast
1:54 AM 26.6 °F 18.2 °F 21.2 °F 80% 29.79 in 10.0 mi WSW 8.1 mph - N/A   Overcast
2:14 AM 26.6 °F 20.0 °F 21.2 °F 80% 29.78 in 10.0 mi WSW 5.8 mph - N/A   Overcast
2:34 AM 26.6 °F 21.2 °F 21.2 °F 80% 29.78 in 10.0 mi WSW 4.6 mph - N/A   Overcast
2:54 AM 28.4 °F 21.2 °F 23.0 °F 80% 29.78 in 10.0 mi WSW 6.9 mph - N/A   Overcast
3:15 AM 28.4 °F 20.4 °F 24.8 °F 86% 29.77 in 10.0 mi WSW 8.1 mph - N/A   Overcast
3:34 AM 28.4 °F 20.4 °F 24.8 °F 86% 29.76 in 10.0 mi WSW 8.1 mph - N/A   Overcast
3:54 AM 30.2 °F 22.6 °F 24.8 °F 80% 29.75 in 10.0 mi SW 8.1 mph - N/A   Overcast
4:15 AM 30.2 °F 22.6 °F 24.8 °F 80% 29.74 in 10.0 mi SW 8.1 mph - N/A   Overcast
4:34 AM 30.2 °F 21.9 °F 24.8 °F 80% 29.73 in 10.0 mi SW 9.2 mph - N/A   Overcast
4:54 AM 30.2 °F 21.9 °F 24.8 °F 80% 29.73 in 10.0 mi SW 9.2 mph - N/A   Overcast
5:14 AM 30.2 °F 20.2 °F 24.8 °F 80% 29.72 in 10.0 mi WSW 12.7 mph - N/A   Mostly Cloudy
5:34 AM 28.4 °F 19.7 °F 24.8 °F 86% 29.72 in 10.0 mi WSW 9.2 mph - N/A   Clear
5:54 AM 28.4 °F 22.2 °F 23.0 °F 80% 29.72 in 10.0 mi WSW 5.8 mph - N/A   Clear
6:14 AM 26.6 °F - 21.2 °F 80% 29.72 in 10.0 mi Calm Calm - N/A   Clear
6:34 AM 24.8 °F 19.1 °F 21.2 °F 86% 29.72 in 10.0 mi WSW 4.6 mph - N/A   Clear
6:54 AM 24.8 °F 20.5 °F 21.2 °F 86% 29.71 in 10.0 mi WSW 3.5 mph - N/A   Clear
7:14 AM 23.0 °F 15.8 °F 19.4 °F 86% 29.71 in 10.0 mi WSW 5.8 mph - N/A   Clear
7:34 AM 23.0 °F 15.8 °F 19.4 °F 86% 29.71 in 10.0 mi WSW 5.8 mph - N/A   Clear
7:55 AM 24.8 °F 19.1 °F 19.4 °F 80% 29.70 in 10.0 mi WSW 4.6 mph - N/A   Clear
8:14 AM 24.8 °F 20.5 °F 19.4 °F 80% 29.70 in 10.0 mi WSW 3.5 mph - N/A   Clear
8:34 AM 24.8 °F 19.1 °F 21.2 °F 86% 29.70 in 10.0 mi WSW 4.6 mph - N/A   Clear
8:55 AM 24.8 °F 16.9 °F 19.4 °F 80% 29.69 in 10.0 mi SW 6.9 mph - N/A   Clear
9:14 AM 26.6 °F 21.2 °F 21.2 °F 80% 29.69 in 10.0 mi WSW 4.6 mph - N/A   Clear
9:34 AM 26.6 °F 19.1 °F 21.2 °F 80% 29.69 in 10.0 mi WSW 6.9 mph - N/A   Scattered Clouds
9:54 AM 28.4 °F 22.2 °F 23.0 °F 80% 29.68 in 10.0 mi West 5.8 mph - N/A   Scattered Clouds
10:14 AM 30.2 °F 26.7 °F 23.0 °F 75% 29.68 in 10.0 mi West 3.5 mph - N/A   Scattered Clouds
10:35 AM 30.2 °F 24.3 °F 23.0 °F 75% 29.68 in 10.0 mi West 5.8 mph - N/A   Scattered Clouds
11:14 AM 32.0 °F 27.5 °F 24.8 °F 75% 29.68 in 10.0 mi WSW 4.6 mph - N/A   Clear
11:35 AM 32.0 °F 27.5 °F 24.8 °F 75% 29.67 in 10.0 mi WSW 4.6 mph - N/A   Clear
11:54 AM 33.8 °F 30.8 °F 26.6 °F 75% 29.67 in 10.0 mi WSW 3.5 mph - N/A   Clear
12:14 PM 33.8 °F - 26.6 °F 75% 29.66 in 10.0 mi Calm Calm - N/A Rain Rain
12:55 PM 32.0 °F 26.4 °F 26.6 °F 80% 29.63 in 10.0 mi SE 5.8 mph - N/A Rain Light Rain
1:15 PM 32.0 °F 26.4 °F 28.4 °F 87% 29.62 in 1.5 mi SSE 5.8 mph - N/A Snow Light Snow
1:35 PM 32.0 °F 25.6 °F 28.4 °F 87% 29.61 in 1.0 mi SE 6.9 mph - N/A Snow Light Snow
1:54 PM 32.0 °F 25.6 °F 28.4 °F 87% 29.60 in 1.0 mi SSE 6.9 mph - 0.02 in Snow Light Snow
2:14 PM 30.2 °F 22.6 °F 28.4 °F 93% 29.58 in 1.0 mi SE 8.1 mph - N/A Snow Light Snow
2:34 PM 30.2 °F 22.6 °F 30.2 °F 100% 29.58 in 1.2 mi ESE 8.1 mph - 0.02 in Snow Light Snow
2:54 PM 30.2 °F 25.4 °F 30.2 °F 100% 29.59 in 0.8 mi SE 4.6 mph - 0.06 in Snow Light Snow
3:14 PM 30.2 °F 25.4 °F 30.2 °F 100% 29.59 in 0.5 mi South 4.6 mph - 0.06 in Snow Snow
3:34 PM 30.2 °F - 30.2 °F 100% 29.59 in 0.8 mi Calm Calm - 0.08 in Snow Light Snow
3:55 PM 30.2 °F 26.7 °F 30.2 °F 100% 29.58 in 1.0 mi ESE 3.5 mph - 0.11 in Snow Light Snow
4:14 PM 32.0 °F - 30.2 °F 93% 29.58 in 2.5 mi Calm Calm - 0.01 in Snow Light Snow
4:34 PM 32.0 °F 28.7 °F 30.2 °F 93% 29.58 in 2.0 mi South 3.5 mph - 0.01 in   Overcast
4:54 PM 30.2 °F - 30.2 °F 100% 29.58 in 3.0 mi Calm Calm - 0.01 in Snow Light Snow
5:14 PM 30.2 °F - 30.2 °F 100% 29.58 in 4.0 mi Calm Calm - N/A   Overcast
5:34 PM 30.2 °F - 30.2 °F 100% 29.58 in 3.0 mi Calm Calm - N/A Snow Light Snow
5:54 PM 30.2 °F - 30.2 °F 100% 29.59 in 3.0 mi Calm Calm - N/A Snow Light Snow
6:14 PM 30.2 °F 25.4 °F 30.2 °F 100% 29.60 in 3.0 mi North 4.6 mph - N/A Snow Light Snow
6:34 PM 30.2 °F 21.9 °F 28.4 °F 93% 29.61 in 3.0 mi NNW 9.2 mph - N/A Snow Light Snow
6:54 PM 28.4 °F 17.5 °F 28.4 °F 100% 29.62 in 2.5 mi NNW 13.8 mph - N/A Snow Light Snow
7:14 PM 28.4 °F 18.5 °F 26.6 °F 93% 29.63 in 3.0 mi NNW 11.5 mph - N/A Snow Light Snow
7:35 PM 28.4 °F 19.7 °F 26.6 °F 93% 29.64 in 3.0 mi NNW 9.2 mph - N/A Snow Light Snow
7:55 PM 28.4 °F 18.5 °F 26.6 °F 93% 29.66 in 5.0 mi NNW 11.5 mph - N/A   Overcast
8:15 PM 26.6 °F 17.5 °F 26.6 °F 100% 29.66 in 3.0 mi NNW 9.2 mph - N/A Snow Light Snow
8:34 PM 26.6 °F 15.7 °F 26.6 °F 100% 29.67 in 2.0 mi NW 12.7 mph - N/A Snow Light Snow
8:54 PM 26.6 °F 15.7 °F 26.6 °F 100% 29.68 in 1.8 mi NNW 12.7 mph - N/A Snow Light Snow
9:14 PM 26.6 °F 14.7 °F 26.6 °F 100% 29.69 in 2.5 mi NW 15.0 mph 20.7 mph N/A Snow Light Snow
9:34 PM 26.6 °F 14.7 °F 26.6 °F 100% 29.70 in 3.0 mi NW 15.0 mph - N/A Snow Light Snow
9:55 PM 26.6 °F 14.7 °F 26.6 °F 100% 29.71 in 2.5 mi NW 15.0 mph 20.7 mph N/A Snow Light Snow
10:15 PM 26.6 °F 15.2 °F 24.8 °F 93% 29.72 in 2.5 mi NW 13.8 mph - N/A Snow Light Snow
10:35 PM 26.6 °F 15.2 °F 24.8 °F 93% 29.73 in 4.0 mi NW 13.8 mph 19.6 mph N/A Snow Light Snow
10:54 PM 24.8 °F 13.4 °F 24.8 °F 100% 29.74 in 7.0 mi NW 12.7 mph 18.4 mph N/A   Overcast
11:15 PM 24.8 °F 13.4 °F 24.8 °F 100% 29.75 in 7.0 mi NW 12.7 mph - N/A Snow Light Snow
11:34 PM 24.8 °F 13.4 °F 23.0 °F 93% 29.75 in 10.0 mi NW 12.7 mph - N/A   Overcast
11:56 PM 24.8 °F 12.9 °F 23.0 °F 93% 29.76 in 10.0 mi NW 13.8 mph - N/A   Overcast